(268404) = 2005 UU205

Discovered at Kitt Peak on 2005-10-26 by Spacewatch.

Orbit

Orbit type: Main Belt

Note: WebGL enabled browser required.

epoch2024-03-31.0
epoch JD2460400.5
perihelion date2023-04-14.18908
perihelion JD2460048.68908
argument of perihelion (°)217.18145
ascending node (°)208.21955
inclination (°)2.23707
eccentricity0.1361664
perihelion distance (AU)2.2930863
Tisserand w.r.t. Jupiter3.4
ΔV w.r.t. Earth (km/sec)9.5
semimajor axis (AU)2.6545462
mean anomaly (°)80.17292
mean daily motion (°/day)0.22788640
aphelion distance (AU)3.016
period (years)4.32
P-vector [x]0.41648274
P-vector [y]0.84322571
P-vector [z]0.33987135
Q-vector [x]-0.90895624
Q-vector [y]0.39379547
Q-vector [z]0.13683449
absolute magnitude17.14
phase slope0.15
uncertainty0
referenceMPEC 2024-E109
observations used300
oppositions14
arc length (days)7647
first opposition used2003
last opposition used2024
residual rms (arc-secs)0.76
perturbers coarse indicatorM-v
perturbers precise indicator003Ek
first observation date used2003-03-30.0
last observation date used2024-03-06.0
computer nameMPCLINUX
JD of orbit computation2456552.130109
perihelion JD uncertainty (days)2.1874E-04
argument of perihelion uncertainty (°)1.4057E-04
ascending node uncertainty (°)1.3244E-04
inclination uncertainty (°)5.0922E-06
eccentricity uncertainty 3.5366E-08
perihelion distance uncertainty (AU)1.0595E-07
Minimum Orbit Intersection Distances (in AU)
for orbit epoch: 2460400.5, reference: E2024-EA9
Mercury1.98418
Venus1.57174
Earth1.30741
Mars0.75431
Jupiter2.27323
Saturn6.68508
Uranus15.6755
Neptune27.3899

Observations

311 total observations over interval: 2003 03 30.39760 – 2024 03 06.354377
These data are available for download (format description).

Date (UT) J2000 RA J2000 Dec Magn Location Ref
2003 03 30.39760 14 19 30.65 -13 58 11.7 21.1 R 695 – Kitt Peak MPS 210147
2003 03 30.45762 14 19 28.22 -13 57 58.4   695 – Kitt Peak MPS 210147
2005 10 26.34484 03 44 01.60 +18 31 54.7 20.3 V 691 – Steward Observatory, Kitt Peak-Spacewatch MPS 149830
2005 10 26.36205 03 44 00.86 +18 31 50.8 20.0 V 691 – Steward Observatory, Kitt Peak-Spacewatch MPS 149830
2005 10 26.37931 03 44 00.18 +18 31 47.6 20.2 V 691 – Steward Observatory, Kitt Peak-Spacewatch MPS 149830
2005 10 28.33454 03 42 41.72 +18 24 43.5 19.9 V G96 – Mt. Lemmon Survey MPS 149830
2005 10 28.34059 03 42 41.47 +18 24 42.1 20.0 V G96 – Mt. Lemmon Survey MPS 149830
2005 10 28.34669 03 42 41.18 +18 24 41.0 19.7 V G96 – Mt. Lemmon Survey MPS 149830
2005 10 28.35277 03 42 40.93 +18 24 39.4 19.7 V G96 – Mt. Lemmon Survey MPS 149830
2005 10 30.35358 03 41 14.93 +18 17 05.8 20.1 V 691 – Steward Observatory, Kitt Peak-Spacewatch MPS 210147
2005 10 30.37087 03 41 14.10 +18 17 01.7 20.4 V 691 – Steward Observatory, Kitt Peak-Spacewatch MPS 210147
2005 10 30.38817 03 41 13.29 +18 16 57.8 20.2 V 691 – Steward Observatory, Kitt Peak-Spacewatch MPS 210147
2005 11 10.24029 03 32 11.13 +17 31 21.6 19.8 V 691 – Steward Observatory, Kitt Peak-Spacewatch MPS 210147
2005 11 10.25762 03 32 10.20 +17 31 16.8 19.8 V 691 – Steward Observatory, Kitt Peak-Spacewatch MPS 210147
2005 11 10.27494 03 32 09.17 +17 31 12.4 19.9 V 691 – Steward Observatory, Kitt Peak-Spacewatch MPS 210147
2005 12 01.26197 03 13 39.57 +16 00 26.7 20.0 V G96 – Mt. Lemmon Survey MPS 210147
2005 12 01.26994 03 13 39.21 +16 00 25.1 20.1 V G96 – Mt. Lemmon Survey MPS 210147
2005 12 01.27800 03 13 38.82 +16 00 23.3 19.8 V G96 – Mt. Lemmon Survey MPS 210147
2005 12 01.28603 03 13 38.42 +16 00 21.4 19.9 V G96 – Mt. Lemmon Survey MPS 210147
2006 01 22.10774 03 12 12.09 +15 45 34.2 20.7 V G96 – Mt. Lemmon Survey MPS 210147
2006 01 22.11381 03 12 12.34 +15 45 36.2 21.4 V G96 – Mt. Lemmon Survey MPS 210147
2006 01 22.11985 03 12 12.63 +15 45 37.2 22.4 V G96 – Mt. Lemmon Survey MPS 210147
2006 01 22.12588 03 12 12.88 +15 45 38.5 21.4 V G96 – Mt. Lemmon Survey MPS 210147
2007 03 11.38134 12 23 46.06 -04 17 45.6 21.1 V G96 – Mt. Lemmon Survey MPS 210147
2007 03 11.38871 12 23 45.70 -04 17 42.8 21.3 V G96 – Mt. Lemmon Survey MPS 210147
2007 03 11.39611 12 23 45.42 -04 17 40.3 21.1 V G96 – Mt. Lemmon Survey MPS 210147
2007 03 11.40346 12 23 44.98 -04 17 38.2 21.1 V G96 – Mt. Lemmon Survey MPS 210147
2007 03 26.29404 12 11 30.80 -02 48 58.5 20.5 V G96 – Mt. Lemmon Survey MPS 210147
2007 03 26.30233 12 11 30.33 -02 48 55.1 20.6 V G96 – Mt. Lemmon Survey MPS 210147
2007 03 26.31054 12 11 29.97 -02 48 52.3 20.7 V G96 – Mt. Lemmon Survey MPS 210147
2007 03 26.31874 12 11 29.50 -02 48 49.4 20.8 V G96 – Mt. Lemmon Survey MPS 210147
2009 09 14.32717 00 29 19.95 +04 58 40.4 20.9   704 – Lincoln Laboratory ETS, New Mexico MPS 298328
2009 09 14.33885 00 29 19.28 +04 58 39.0 20.3   704 – Lincoln Laboratory ETS, New Mexico MPS 298328
2009 09 14.35054 00 29 18.88 +04 58 35.1 20.4   704 – Lincoln Laboratory ETS, New Mexico MPS 298328
2009 09 14.36224 00 29 18.39 +04 58 32.2 20.2   704 – Lincoln Laboratory ETS, New Mexico MPS 298329
2009 09 19.17663 00 25 45.06 +04 31 57.9   691 – Steward Observatory, Kitt Peak-Spacewatch MPS 295852
2009 09 19.19425 00 25 44.23 +04 31 51.9   691 – Steward Observatory, Kitt Peak-Spacewatch MPS 295852
2009 09 19.21186 00 25 43.39 +04 31 45.8   691 – Steward Observatory, Kitt Peak-Spacewatch MPS 295852
2009 09 27.28668 00 19 14.55 +03 42 33.1 19.7 V G96 – Mt. Lemmon Survey MPS 296940
2009 09 27.29442 00 19 14.16 +03 42 30.2 19.9 V G96 – Mt. Lemmon Survey MPS 296940
2009 09 27.30222 00 19 13.76 +03 42 27.4 19.9 V G96 – Mt. Lemmon Survey MPS 296940
2009 09 27.30984 00 19 13.36 +03 42 24.3 19.9 V G96 – Mt. Lemmon Survey MPS 296940
2009 10 14.19129 00 05 57.91 +01 56 40.8 20.2 V G96 – Mt. Lemmon Survey MPS 298329
2009 10 14.19804 00 05 57.62 +01 56 38.5 19.9 V G96 – Mt. Lemmon Survey MPS 298329
2009 10 14.20510 00 05 57.30 +01 56 35.7 20.2 V G96 – Mt. Lemmon Survey MPS 298329
2009 10 14.21221 00 05 56.97 +01 56 33.6 20.3 V G96 – Mt. Lemmon Survey MPS 298329
2009 12 11.08880 00 06 32.40 +00 50 38.6 22.1 V G96 – Mt. Lemmon Survey MPS 306629
2009 12 11.09404 00 06 32.61 +00 50 41.2 21.5 V G96 – Mt. Lemmon Survey MPS 306629
2009 12 11.09926 00 06 32.90 +00 50 41.2 21.7 V G96 – Mt. Lemmon Survey MPS 306629
2009 12 11.11145 00 06 33.40 +00 50 43.9 21.4 V G96 – Mt. Lemmon Survey MPS 306629
2011 01 29.26249 10 19 12.91 +07 04 39.7 20.7 V 691 – Steward Observatory, Kitt Peak-Spacewatch MPS 368543
2011 01 29.28471 10 19 11.89 +07 04 44.8 20.7 V 691 – Steward Observatory, Kitt Peak-Spacewatch MPS 368543
2011 01 29.30693 10 19 10.92 +07 04 50.2 20.8 V 691 – Steward Observatory, Kitt Peak-Spacewatch MPS 368543
2011 01 30.41971 10 18 23.533 +07 09 09.24 21.3 w F51 – Pan-STARRS 1, Haleakala MPS 379977
2011 01 30.43578 10 18 22.835 +07 09 13.18 20.9 w F51 – Pan-STARRS 1, Haleakala MPS 379977
2011 01 30.45055 10 18 22.169 +07 09 16.72 20.9 w F51 – Pan-STARRS 1, Haleakala MPS 379977
2011 02 04.45128 10 14 32.664 +07 30 36.49 20.8 w F51 – Pan-STARRS 1, Haleakala MPS 379977
2011 02 04.46557 10 14 31.945 +07 30 40.38 20.8 w F51 – Pan-STARRS 1, Haleakala MPS 379977
2011 02 04.47999 10 14 31.210 +07 30 44.33 20.6 w F51 – Pan-STARRS 1, Haleakala MPS 379977
2011 02 04.49443 10 14 30.488 +07 30 48.27 20.8 w F51 – Pan-STARRS 1, Haleakala MPS 379977
2011 02 05.43936 10 13 44.596 +07 35 10.11 20.7 w F51 – Pan-STARRS 1, Haleakala MPS 379648
2011 02 05.46807 10 13 43.126 +07 35 18.67 21.4 w F51 – Pan-STARRS 1, Haleakala MPS 379648
2011 02 05.48245 10 13 42.391 +07 35 22.28 20.8 w F51 – Pan-STARRS 1, Haleakala MPS 379648
2011 02 10.34978 10 09 35.31 +07 59 09.8 20.4 V G96 – Mt. Lemmon Survey MPS 369509
2011 02 10.35668 10 09 34.92 +07 59 11.8 20.2 V G96 – Mt. Lemmon Survey MPS 369509
2011 02 10.36366 10 09 34.52 +07 59 13.9 20.2 V G96 – Mt. Lemmon Survey MPS 369509
2011 02 10.37062 10 09 34.16 +07 59 16.1 20.2 V G96 – Mt. Lemmon Survey MPS 369509
2011 02 23.24691 09 58 08.58 +09 08 19.6 20.8 V 703 – Catalina Sky Survey MPS 371430
2011 02 23.25581 09 58 08.18 +09 08 21.5 19.9 V 703 – Catalina Sky Survey MPS 371430
2011 02 23.26487 09 58 07.68 +09 08 26.0 20.0 V 703 – Catalina Sky Survey MPS 371430
2011 02 23.27388 09 58 07.14 +09 08 27.5 19.5 V 703 – Catalina Sky Survey MPS 371430
2011 03 02.35441 09 52 09.44 +09 46 20.1 20.5 V G96 – Mt. Lemmon Survey MPS 372004
2011 03 02.36260 09 52 09.04 +09 46 22.5 20.3 V G96 – Mt. Lemmon Survey MPS 372004
2011 03 02.37072 09 52 08.61 +09 46 24.9 20.3 V G96 – Mt. Lemmon Survey MPS 372004
2011 03 02.37880 09 52 08.22 +09 46 27.7 20.3 V G96 – Mt. Lemmon Survey MPS 372004
2012 05 20.27694 15 54 20.95 -18 30 27.5 19.9 V G96 – Mt. Lemmon Survey MPS 425909
2012 05 20.28378 15 54 20.48 -18 30 27.1 21.1 V G96 – Mt. Lemmon Survey MPS 425909
2012 05 20.29072 15 54 20.16 -18 30 25.3 21.4 V G96 – Mt. Lemmon Survey MPS 425909
2012 05 20.29773 15 54 19.72 -18 30 24.1 21.4 V G96 – Mt. Lemmon Survey MPS 425909
2013 08 12.21447 21 56 49.83 -09 06 49.9 20.8 V 691 – Steward Observatory, Kitt Peak-Spacewatch MPS 474273
2013 08 12.22958 21 56 49.08 -09 06 53.7 20.8 V 691 – Steward Observatory, Kitt Peak-Spacewatch MPS 474273
2013 08 12.24468 21 56 48.29 -09 06 58.4 20.6 V 691 – Steward Observatory, Kitt Peak-Spacewatch MPS 474273
2013 08 30.33924 21 41 26.837 -10 35 37.23 20.5 w F51 – Pan-STARRS 1, Haleakala MPS 475998
2013 08 30.35191 21 41 26.187 -10 35 41.00 20.5 w F51 – Pan-STARRS 1, Haleakala MPS 475998
2013 08 30.35324 21 41 26.121 -10 35 41.35 20.5 w F51 – Pan-STARRS 1, Haleakala MPS 475998
2013 08 30.36593 21 41 25.474 -10 35 45.14 20.4 w F51 – Pan-STARRS 1, Haleakala MPS 475998
2013 08 30.36726 21 41 25.402 -10 35 45.53 20.5 w F51 – Pan-STARRS 1, Haleakala MPS 475998
2013 08 30.37994 21 41 24.759 -10 35 49.26 20.4 w F51 – Pan-STARRS 1, Haleakala MPS 475998
2013 08 30.38126 21 41 24.695 -10 35 49.63 20.6 w F51 – Pan-STARRS 1, Haleakala MPS 475998
2014 12 25.97533 07 23 38.22 +18 22 11.9 18.4   J43 – Oukaimeden Observatory, Marrakech MPS 560793
2014 12 25.98849 07 23 37.50 +18 22 12.7 18.8   J43 – Oukaimeden Observatory, Marrakech MPS 560793
